Showing default

CINEMA, 38764

Orbit data source: Space-Track

CINEMA, 38764 is a payload satellite owned by UCB (US) in LEO that was launched on Thu, 13 Sep 2012 UTC via an ATLAS V 401 launch vehicle from the Air Force Western Test Range (AFWTR). Payload-class satellites include a variety of spacecraft equipped with specific instruments for various scientific and technological missions. These include communications satellites like Starlink; space stations such as the ISS; scientific satellites like the Hubble; Earth observation satellites from companies like Planet Labs, Umbra, and HawkEye 360; GPS; miniature CubeSats for education and research; and military/defense satellites.

Loading next visibility...
Identifier
38764, 2012-048G
Orbit
LEO
Country
Flag of USUS
Related business
Manufacturer
UCB
Mission
Operational Amateur Science
Bus & Motor
CUBESAT 3U, Unknown motor
Mass
4 kg wet, 4 kg dry
Launch date (UTC)
2012-09-13 (14 years ago)
Launch vehicle
ATLAS V 401
Launch site
Air Force Western Test Range (AFWTR)
Object type
Payload
Rocket body
Debris
Shape & HBR
Box + 1 Rod, 0.3 m
Radar Cross Section
0.035 m², Small (<0.1 m²)

Expand to show TLE details & history
Last TLE update: 10 hours ago

TLE from 10 hours ago
0 CINEMA
1 38764U 12048G   26146.29340431  .00030042  00000-0  57680-3 0  9996
2 38764  64.6418 159.8234 0046476 183.9250 176.1531 15.46655547113856
Epoch: 2026-05-26T07:02Z
TLE epoch observation values (Epoch: 2026-05-26T07:02:30.132Z)
Latitude
-0.00004°
Longitude
170.32891°
Altitude
460.121 km
Speed
7.62 km/s
True Right ascension
10h 39m 17s
True Declination
0° 00' 00"
Sunlit
Object was in daylight at epoch
Visualization orbit readout
Latitude
Unknown
Longitude
Unknown
Altitude
Unknown
Speed
Unknown
Apparent Right ascension
Unknown
Apparent Declination
Unknown
Sunlit
N/A
Visualization observer readout
Local Sidereal Time
02:27:50
Azimuth
Unknown
Elevation
Unknown
Doppler factor
Unknown
Orbital elements
Apogee altitude
456.685 km
Perigee altitude
393.448 km
Semi-major axis
6,803.204 km
Eccentricity
0.00465
Inclination
64.6418°
RAAN
159.8234°
Arg. of periapsis
183.925°
True anomaly
176.18862°
Mean anomaly
176.1531°
Eccentric anomaly
176.17088°
Mean motion
3.86788 °/min
Orbital period
93.07 mins
BSTAR
0.0005768
Loading maneuver chart data...
Computing Atmospheric mass density...
Loading historical data...
Loading historical data...
Loading historical data...
Loading historical data...
Loading historical data...
Loading historical data...
Loading historical data...

Documentation

Showing up to 5 results
|